TITAN 3C TRANSTAGE DEB, 26781

Orbit data source: Space-Track

TITAN 3C TRANSTAGE DEB, 26781 is space debris in HEO originally from a launch on Tue, 21 Dec 1965 UTC launched from the Air Force Eastern Test Range (AFETR). Debris objects in space refer to the collection of defunct objects orbiting the Earth. Examples of debris include non-operational satellites, rocket bodies, and fragments generated from explosions, collisions, or faulty payload assembly.

Loading next visibility...
Identifier
26781, 1965-108AZ
Orbit
HEO
Country
Flag of USUS
Related business
Manufacturer
Unknown
Mission
Spacecraft
Bus & Motor
Unknown
Mass
Unknown
Launch date (UTC)
1965-12-21 (60 years ago)
Launch vehicle
Unknown
Launch site
Air Force Eastern Test Range (AFETR)
Object type
Payload
Rocket body
Debris
Shape & HBR
Unknown shape, 0.2 m
Radar Cross Section
Medium (>0.1 m² and <1 m²)

Expand to show TLE details & history
Last TLE update: 2 days ago

TLE from 2 days ago
0 TITAN 3C TRANSTAGE DEB
1 26781U 65108AZ  26132.16599916  .00005180  00000-0  16448-1 0  9992
2 26781  27.4267 319.7576 6287608 141.3616 286.9594  3.44739996 81614
Epoch: 2026-05-12T03:59Z
TLE epoch observation values (Epoch: 2026-05-12T03:59:02.327Z)
Latitude
-0.00005°
Longitude
30.0504°
Altitude
15,594.213 km
Speed
3.84 km/s
True Right ascension
21h 19m 01s
True Declination
0° 00' 00"
Sunlit
Object was in daylight at epoch
Visualization orbit readout
Latitude
Unknown
Longitude
Unknown
Altitude
Unknown
Speed
Unknown
Apparent Right ascension
Unknown
Apparent Declination
Unknown
Sunlit
N/A
Visualization observer readout
Local Sidereal Time
01:58:20
Azimuth
Unknown
Elevation
Unknown
Doppler factor
Unknown
Orbital elements
Apogee altitude
23,775.931 km
Perigee altitude
494.801 km
Semi-major axis
18,513.503 km
Eccentricity
0.62876
Inclination
27.4267°
RAAN
319.7576°
Arg. of periapsis
141.3616°
True anomaly
218.64173°
Mean anomaly
286.9594°
Eccentric anomaly
252.58533°
Mean motion
0.86161 °/min
Orbital period
417.82 mins
BSTAR
0.016448
Loading maneuver chart data...
Computing Atmospheric mass density...

Documentation

Showing up to 5 results
|